Date Time,Air Temp,Sky Temp,Clarity,Light Level,Rain Sensor,Readings
2017-08-10 00:00:05,23.1,-2.8,25.9,0.1,2.4,112
2017-08-10 00:05:05,23.5,-2.7,26.2,0.1,2.3,112
2017-08-10 00:10:05,23.7,-1.8,25.5,0.1,2.3,111
2017-08-10 00:15:05,23.8,-1.4,25.2,0.1,2.3,112
2017-08-10 00:20:05,23.8,-0.9,24.7,0.1,2.3,112
2017-08-10 00:25:05,23.8,0.5,23.3,0.1,2.3,111
2017-08-10 00:30:05,23.8,0.5,23.3,0.1,2.3,112
2017-08-10 00:35:05,23.8,-0.2,24.0,0.1,2.3,112
2017-08-10 00:40:05,23.8,-1.5,25.3,0.1,2.3,112
2017-08-10 00:45:05,23.8,-2.5,26.3,0.1,2.3,111
2017-08-10 00:50:05,23.7,-3.2,26.9,0.1,2.3,112
2017-08-10 00:55:05,23.7,0.4,23.3,0.1,2.3,112
2017-08-10 01:00:05,21.5,5.9,15.6,0.1,2.5,112
2017-08-10 01:05:05,20.0,7.0,13.0,0.1,2.6,111
2017-08-10 01:10:05,19.6,7.2,12.3,0.1,2.4,111
2017-08-10 01:15:05,19.4,7.2,12.2,0.1,2.3,112
2017-08-10 01:20:05,19.4,7.3,12.1,0.1,2.3,111
2017-08-10 01:25:05,19.4,7.2,12.2,0.1,2.3,112
2017-08-10 01:30:05,19.4,7.2,12.2,0.1,2.3,112
2017-08-10 01:35:05,19.4,7.1,12.3,0.1,2.3,111
2017-08-10 01:40:05,19.4,7.2,12.3,0.1,2.3,112
2017-08-10 01:45:05,19.4,7.1,12.4,0.1,2.3,111
2017-08-10 01:50:05,19.4,7.1,12.3,0.1,2.3,112
2017-08-10 01:55:05,19.4,7.3,12.1,0.1,2.3,111
2017-08-10 02:00:05,19.4,7.8,11.7,0.1,2.3,111
2017-08-10 02:05:05,19.4,7.5,11.9,0.1,2.3,112
2017-08-10 02:10:05,19.4,7.1,12.3,0.1,2.3,111
2017-08-10 02:15:05,19.3,7.0,12.4,0.1,2.3,112
2017-08-10 02:20:05,19.3,7.1,12.3,0.1,2.3,111
2017-08-10 02:25:05,19.3,6.9,12.4,0.1,2.3,112
2017-08-10 02:30:05,19.6,6.8,12.7,0.1,2.2,111
2017-08-10 02:35:05,19.3,6.9,12.4,0.1,2.2,112
2017-08-10 02:40:05,19.2,6.8,12.4,0.1,2.2,111
2017-08-10 02:45:05,19.2,6.6,12.6,0.1,2.1,111
2017-08-10 02:50:05,19.2,6.7,12.5,0.1,2.1,112
2017-08-10 02:55:05,19.2,6.8,12.4,0.1,2.1,111
2017-08-10 03:00:05,19.1,6.7,12.4,0.1,2.1,111
2017-08-10 03:05:05,19.1,6.7,12.4,0.1,2.0,112
2017-08-10 03:10:05,19.1,5.8,13.2,0.1,1.9,111
2017-08-10 03:15:05,18.7,3.9,14.8,0.1,1.9,111
2017-08-10 03:20:05,18.9,2.0,16.9,0.2,1.9,111
2017-08-10 03:25:05,18.8,0.4,18.4,0.3,2.0,112
2017-08-10 03:30:05,20.5,-3.2,23.7,0.4,2.2,111
2017-08-10 03:35:05,22.4,-5.6,28.0,0.5,2.6,112
2017-08-10 03:40:05,22.9,-5.7,28.5,0.5,2.6,111
2017-08-10 03:45:05,23.0,-5.7,28.7,0.5,2.5,111
2017-08-10 03:50:05,23.0,-5.8,28.8,0.5,2.4,112
2017-08-10 03:55:05,22.6,-4.0,26.5,0.5,2.4,112
2017-08-10 04:00:05,23.0,-3.7,26.7,0.3,2.4,111
2017-08-10 04:05:05,23.0,-2.5,25.5,0.5,2.3,111
2017-08-10 04:10:05,23.1,-1.2,24.2,0.3,2.3,112
2017-08-10 04:15:05,23.1,-1.8,24.9,0.4,2.3,112
2017-08-10 04:20:05,23.2,-3.4,26.5,0.4,2.3,112
2017-08-10 04:25:05,23.1,-4.9,28.1,0.6,2.3,111
2017-08-10 04:30:05,23.1,-4.5,27.6,0.6,2.3,112
2017-08-10 04:35:05,23.0,-3.8,26.8,0.7,2.3,112
2017-08-10 04:40:05,23.0,-1.6,24.6,0.8,2.3,111
2017-08-10 04:45:05,23.0,-0.1,23.1,0.8,2.3,112
2017-08-10 04:50:05,23.0,0.3,22.7,0.9,2.3,112
2017-08-10 04:55:05,22.6,1.5,21.1,1.4,2.3,110
2017-08-10 05:00:05,23.0,2.4,20.6,2.1,2.3,112
2017-08-10 05:05:05,20.8,2.4,18.3,3.4,2.5,111
2017-08-10 05:10:05,19.1,1.3,17.8,5.6,2.2,111
2017-08-10 05:15:05,18.6,0.1,18.5,9.0,1.9,112
2017-08-10 05:20:05,18.3,-0.3,18.6,13.6,2.1,112
2017-08-10 05:25:05,18.2,-0.1,18.3,18.5,2.3,111
2017-08-10 05:30:05,18.1,-0.2,18.3,22.7,2.3,112
2017-08-10 05:35:05,18.1,-0.6,18.7,25.6,2.4,112
2017-08-10 05:40:05,18.0,-0.5,18.5,27.8,2.4,113
2017-08-10 05:45:05,18.0,-1.2,19.3,29.3,2.4,111
2017-08-10 05:50:05,18.3,-0.6,18.9,30.2,2.4,111
2017-08-10 05:55:05,18.0,1.0,17.0,30.8,2.4,111
2017-08-10 06:00:05,18.0,2.8,15.2,31.1,2.3,112
2017-08-10 06:05:01,18.0,4.0,14.0,31.3,2.4,73
2017-08-10 06:10:01,18.1,3.9,14.2,31.5,2.4,111
2017-08-10 06:15:01,18.1,3.8,14.3,31.8,2.4,112
2017-08-10 06:20:01,18.1,4.1,14.0,31.9,2.4,111
2017-08-10 06:25:01,18.1,4.1,14.0,32.0,2.4,112
2017-08-10 06:30:01,18.2,4.5,13.7,32.0,2.4,112
2017-08-10 06:35:01,18.2,4.8,13.4,32.0,2.4,112
2017-08-10 06:40:01,18.2,4.9,13.2,32.0,2.4,111
2017-08-10 06:45:01,18.2,4.9,13.2,32.0,2.4,112
2017-08-10 06:50:01,18.1,4.9,13.2,32.1,2.4,112
2017-08-10 06:55:01,18.2,5.0,13.2,32.2,2.4,111
2017-08-10 07:00:01,18.2,5.0,13.2,32.2,2.4,112
2017-08-10 07:05:02,17.9,5.1,12.8,32.2,2.4,112
2017-08-10 07:10:02,18.3,5.0,13.3,32.2,2.3,112
2017-08-10 07:15:02,18.5,4.8,13.7,32.3,2.3,111
2017-08-10 07:20:02,18.6,4.7,13.9,32.3,2.3,112
2017-08-10 07:25:02,18.7,3.6,15.1,32.3,2.3,111
2017-08-10 07:30:02,18.7,1.2,17.5,32.3,2.2,111
2017-08-10 07:35:02,18.7,0.4,18.3,32.3,2.3,112
2017-08-10 07:40:02,18.7,-0.4,19.1,32.3,2.2,111
2017-08-10 07:45:02,20.8,-2.3,23.2,32.3,2.2,112
2017-08-10 07:50:02,22.7,-4.0,26.7,32.3,2.6,112
2017-08-10 07:55:02,23.4,-5.5,28.9,32.3,2.3,112
2017-08-10 08:00:02,23.8,-6.8,30.5,32.3,2.3,111
2017-08-10 08:05:02,23.8,-7.1,30.9,32.3,2.3,112
2017-08-10 08:10:02,23.9,-7.2,31.1,32.3,2.3,111
2017-08-10 08:15:02,23.9,-7.4,31.3,32.3,2.3,112
2017-08-10 08:20:02,24.0,-7.2,31.2,32.3,2.3,112
2017-08-10 08:25:02,24.2,-7.5,31.7,32.3,2.4,111
2017-08-10 08:30:02,24.1,-7.4,31.5,32.3,2.4,112
2017-08-10 08:35:02,24.0,-7.7,31.6,32.3,2.3,111
2017-08-10 08:40:02,23.9,-7.4,31.3,32.3,2.3,112
2017-08-10 08:45:02,23.9,-7.3,31.2,32.3,2.3,111
2017-08-10 08:50:02,23.9,-7.3,31.2,32.3,2.3,112
2017-08-10 08:55:02,23.9,-7.5,31.5,32.3,2.3,111
2017-08-10 09:00:02,24.0,-7.3,31.2,32.3,2.4,112
2017-08-10 09:05:02,24.1,-7.3,31.4,32.3,2.5,111
2017-08-10 09:10:02,24.3,-6.8,31.1,32.3,2.6,112
2017-08-10 09:15:02,24.5,-6.7,31.2,32.3,2.5,112
2017-08-10 09:20:02,24.6,-6.4,31.0,32.3,2.3,112
2017-08-10 09:25:02,24.7,-6.5,31.3,32.3,2.3,112
2017-08-10 09:30:02,24.9,-6.5,31.4,32.3,2.3,112
2017-08-10 09:35:02,25.1,-6.4,31.5,32.3,2.3,111
2017-08-10 09:40:02,25.1,-6.4,31.6,32.3,2.3,113
2017-08-10 09:45:02,25.3,-5.4,30.6,32.4,2.3,111
2017-08-10 09:50:02,25.8,-4.9,30.7,32.4,2.4,111
2017-08-10 09:55:02,26.4,-5.2,31.6,32.4,2.3,112
2017-08-10 10:00:02,26.7,-5.0,31.6,32.5,2.3,111
2017-08-10 10:05:02,26.9,-5.2,32.1,32.5,2.3,112
2017-08-10 10:10:02,27.0,-4.9,31.9,32.5,2.4,111
2017-08-10 10:15:02,27.2,-4.8,32.0,32.5,2.3,112
2017-08-10 10:20:02,27.3,-4.4,31.8,32.5,2.3,112
2017-08-10 10:25:02,27.5,-4.3,31.9,32.5,2.3,111
2017-08-10 10:30:02,27.6,-4.1,31.7,32.5,2.3,112
2017-08-10 10:35:02,27.7,-3.9,31.5,32.5,2.3,112
2017-08-10 10:40:02,27.8,-3.3,31.1,32.5,2.3,112
2017-08-10 10:45:02,28.0,-2.9,30.9,32.5,2.5,111
2017-08-10 10:50:02,28.2,-2.7,30.9,32.5,2.7,112
2017-08-10 10:55:02,28.3,-2.8,31.1,32.6,2.5,112
2017-08-10 11:00:02,28.4,-2.1,30.5,32.6,2.4,111
2017-08-10 11:05:02,28.5,-1.7,30.2,32.6,2.3,112
2017-08-10 11:10:02,28.9,0.7,28.2,32.6,2.3,111
2017-08-10 11:15:02,29.4,2.3,27.1,32.6,2.3,111
2017-08-10 11:20:02,29.9,4.1,25.8,32.6,2.3,112
2017-08-10 11:25:02,29.6,4.5,25.1,32.6,2.3,111
2017-08-10 11:30:02,28.8,8.3,20.5,32.6,2.3,112
2017-08-10 11:35:02,25.7,9.3,16.5,32.5,2.4,111
2017-08-10 11:40:02,24.2,9.1,15.1,32.5,2.3,111
2017-08-10 11:45:02,23.8,8.8,15.0,32.5,2.3,112
2017-08-10 11:50:02,23.8,9.7,14.1,32.5,2.3,111
2017-08-10 11:55:02,23.9,11.3,12.6,32.5,2.3,111
2017-08-10 12:00:02,23.9,11.9,11.9,32.6,2.3,112
2017-08-10 12:05:02,24.3,11.5,12.7,32.6,2.3,111
2017-08-10 12:10:02,24.4,10.1,14.2,32.5,2.3,112
2017-08-10 12:15:02,24.1,9.5,14.7,32.5,2.3,111
2017-08-10 12:20:02,24.3,8.0,16.3,32.6,2.3,112
2017-08-10 12:25:02,24.8,6.1,18.7,32.6,2.3,111
2017-08-10 12:30:02,25.6,4.3,21.3,32.5,2.3,112
2017-08-10 12:35:02,27.7,4.2,23.5,32.5,2.5,112
2017-08-10 12:40:02,28.3,4.8,23.4,32.5,2.4,111
2017-08-10 12:45:02,28.3,3.2,25.0,32.5,2.4,111
2017-08-10 12:50:02,28.5,4.2,24.3,32.6,2.4,112
2017-08-10 12:55:02,29.0,5.7,23.3,32.6,2.4,112
2017-08-10 13:00:02,29.3,4.2,25.1,32.6,2.3,112
2017-08-10 13:05:02,29.3,6.0,23.3,32.6,2.3,111
2017-08-10 13:10:02,28.3,11.1,17.2,32.6,2.4,112
2017-08-10 13:15:02,27.1,10.0,17.1,32.6,2.3,111
2017-08-10 13:20:02,26.0,10.5,15.5,32.6,2.6,111
2017-08-10 13:25:02,27.1,10.5,16.6,32.6,2.5,111
2017-08-10 13:30:02,28.6,12.6,16.0,32.6,2.4,112
2017-08-10 13:35:02,29.4,12.0,17.4,32.6,2.4,111
2017-08-10 13:40:02,30.7,9.7,21.0,32.6,2.4,111
2017-08-10 13:45:02,31.8,7.4,24.4,32.6,2.4,111
2017-08-10 13:50:02,31.8,7.1,24.7,32.6,2.3,112
2017-08-10 13:55:02,32.1,9.7,22.4,32.6,2.4,111
2017-08-10 14:00:02,32.3,9.4,22.9,32.6,2.4,112
2017-08-10 14:05:02,32.7,7.8,24.9,32.6,2.3,111
2017-08-10 14:10:02,32.3,7.0,25.3,32.6,2.3,112
2017-08-10 14:15:02,31.2,10.0,21.3,32.6,2.4,111
2017-08-10 14:20:02,32.4,8.9,23.6,32.6,2.4,112
2017-08-10 14:25:02,33.7,7.7,26.0,32.6,2.4,111
2017-08-10 14:30:02,34.1,7.3,26.8,32.6,1.9,112
2017-08-10 14:35:02,33.8,8.1,25.7,32.6,2.1,111
2017-08-10 14:40:02,34.2,8.9,25.2,32.6,1.7,112
2017-08-10 14:45:02,34.2,5.8,28.4,32.6,1.5,111
2017-08-10 14:50:02,33.1,7.6,25.5,32.6,2.3,111
2017-08-10 14:55:02,33.0,6.8,26.2,32.6,2.4,112
2017-08-10 15:00:02,32.9,8.8,24.0,32.6,2.4,111
2017-08-10 15:05:02,33.5,7.7,25.8,32.6,2.2,112
2017-08-10 15:10:02,33.5,6.1,27.4,32.6,2.2,111
2017-08-10 15:15:02,32.7,7.2,25.5,32.6,2.3,112
2017-08-10 15:20:02,31.9,11.6,20.4,32.6,2.4,111
2017-08-10 15:25:02,33.6,9.9,23.6,32.6,1.8,112
2017-08-10 15:30:02,34.4,9.9,24.5,32.6,1.5,111
2017-08-10 15:35:02,34.3,8.7,25.6,32.6,1.5,112
2017-08-10 15:40:02,34.2,8.8,25.4,32.6,1.6,112
2017-08-10 15:45:02,34.1,8.9,25.3,32.6,1.6,111
2017-08-10 15:50:02,34.4,9.3,25.0,32.6,1.4,111
2017-08-10 15:55:02,34.6,8.5,26.1,32.6,1.2,112
2017-08-10 16:00:02,34.6,6.8,27.7,32.6,1.3,111
2017-08-10 16:05:02,33.9,8.3,25.6,32.6,1.5,112
2017-08-10 16:10:02,34.3,9.9,24.4,32.6,1.4,111
2017-08-10 16:15:02,35.3,11.2,24.2,32.6,1.5,111
2017-08-10 16:20:02,35.9,10.2,25.7,32.6,1.8,111
2017-08-10 16:25:02,35.8,9.7,26.1,32.6,1.8,111
2017-08-10 16:30:02,35.7,14.2,21.5,32.6,1.9,112
2017-08-10 16:35:02,35.4,12.8,22.6,32.6,1.8,111
2017-08-10 16:40:02,35.4,8.5,26.9,32.6,1.8,111
2017-08-10 16:45:02,34.8,13.7,21.1,32.6,1.5,112
2017-08-10 16:50:02,33.7,16.0,17.6,32.6,1.6,111
2017-08-10 16:55:02,32.8,13.4,19.4,32.6,1.5,112
2017-08-10 17:00:02,32.2,12.8,19.4,32.6,1.2,111
2017-08-10 17:05:02,30.6,13.7,17.0,32.6,1.4,112
2017-08-10 17:10:02,30.7,11.1,19.6,32.6,2.3,111
2017-08-10 17:15:02,30.3,13.1,17.2,32.6,2.4,112
2017-08-10 17:20:02,29.3,10.7,18.6,32.6,2.5,111
2017-08-10 17:25:02,31.2,10.7,20.6,32.6,2.3,112
2017-08-10 17:30:02,32.9,13.6,19.3,32.6,1.3,111
2017-08-10 17:35:02,31.1,11.7,19.4,32.6,1.2,111
2017-08-10 17:40:02,32.3,6.8,25.5,32.6,2.2,112
2017-08-10 17:45:02,33.2,7.4,25.7,32.6,1.8,111
2017-08-10 17:50:02,33.8,7.9,25.8,32.6,1.6,112
2017-08-10 17:55:02,33.9,9.6,24.4,32.6,1.5,111
2017-08-10 18:00:02,33.8,7.6,26.2,32.6,1.5,112
2017-08-10 18:05:02,32.6,2.2,30.5,32.5,1.9,111
2017-08-10 18:10:02,31.6,6.7,24.8,32.6,2.5,111
2017-08-10 18:15:02,32.3,6.7,25.6,32.6,2.4,111
2017-08-10 18:20:02,33.1,6.3,26.9,32.6,2.0,112
2017-08-10 18:25:02,33.9,6.5,27.4,32.6,1.5,111
2017-08-10 18:30:02,33.7,5.7,28.0,32.6,1.5,112
2017-08-10 18:35:02,33.3,5.2,28.1,32.6,1.6,111
2017-08-10 18:40:02,32.9,4.3,28.6,32.6,1.7,112
2017-08-10 18:45:02,32.7,4.4,28.4,32.6,1.5,112
2017-08-10 18:50:02,32.8,4.2,28.7,32.6,1.4,111
2017-08-10 18:55:02,32.8,3.5,29.3,32.6,1.5,112
2017-08-10 19:00:02,32.6,3.3,29.3,32.6,2.2,111
2017-08-10 19:05:02,32.5,2.6,29.9,32.6,2.3,112
2017-08-10 19:10:02,32.1,2.2,29.9,32.6,2.3,110
2017-08-10 19:15:02,31.9,2.2,29.6,32.5,2.3,112
2017-08-10 19:20:02,31.8,2.4,29.4,32.5,2.3,111
2017-08-10 19:25:02,31.8,2.8,29.0,32.5,2.4,111
2017-08-10 19:30:02,31.8,3.0,28.8,32.5,2.4,111
2017-08-10 19:35:02,31.7,3.2,28.5,32.5,2.6,112
2017-08-10 19:40:02,31.5,2.6,28.9,32.5,2.4,111
2017-08-10 19:45:02,31.3,2.5,28.8,32.5,2.3,111
2017-08-10 19:50:02,31.0,1.2,29.7,32.4,2.4,111
2017-08-10 19:55:02,30.6,0.7,29.9,32.4,2.4,111
2017-08-10 20:00:02,30.3,0.3,30.0,32.4,2.5,112
2017-08-10 20:05:02,30.1,-0.1,30.2,32.3,2.3,112
2017-08-10 20:10:02,29.8,-0.5,30.3,32.2,2.4,112
2017-08-10 20:15:02,29.5,-0.9,30.4,32.1,2.5,111
2017-08-10 20:20:02,29.1,-1.4,30.5,31.9,2.3,112
2017-08-10 20:25:02,28.7,-1.6,30.3,31.6,2.4,112
2017-08-10 20:30:02,28.3,-1.8,30.1,31.2,2.5,112
2017-08-10 20:35:02,27.9,-2.2,30.1,30.7,2.4,112
2017-08-10 20:40:02,27.5,-2.6,30.1,29.9,2.5,111
2017-08-10 20:45:02,26.7,-2.6,29.3,28.5,2.6,111
2017-08-10 20:50:02,27.1,-2.6,29.6,26.3,2.7,111
2017-08-10 20:55:02,26.9,-2.6,29.5,23.1,2.5,110
2017-08-10 21:00:02,26.9,-2.6,29.4,18.5,2.4,112
2017-08-10 21:05:02,26.8,-2.4,29.2,13.4,2.3,111
2017-08-10 21:10:02,26.8,-2.7,29.5,8.7,2.3,111
2017-08-10 21:15:02,26.8,-2.7,29.5,5.2,2.3,112
2017-08-10 21:20:02,26.8,-2.7,29.4,3.0,2.3,110
2017-08-10 21:25:02,26.8,-2.8,29.6,1.7,2.3,112
2017-08-10 21:30:02,26.8,-2.8,29.6,0.9,2.3,112
2017-08-10 21:35:02,26.8,-3.0,29.7,0.5,2.3,113
2017-08-10 21:40:02,26.7,-3.1,29.8,0.3,2.3,112
2017-08-10 21:45:02,26.7,-3.0,29.7,0.1,2.3,113
2017-08-10 21:50:02,26.6,-3.0,29.6,0.0,2.3,112
2017-08-10 21:55:02,26.6,-2.9,29.5,0.0,2.3,112
2017-08-10 22:00:02,26.6,-3.2,29.8,0.0,2.3,112
2017-08-10 22:05:02,26.5,-2.9,29.4,0.0,2.5,112
2017-08-10 22:10:02,26.3,-3.2,29.5,0.0,2.6,112
2017-08-10 22:15:03,26.3,-2.8,29.1,0.0,2.4,111
2017-08-10 22:20:03,26.4,-2.7,29.1,0.0,2.4,111
2017-08-10 22:25:03,26.5,-2.5,29.0,0.0,2.5,111
2017-08-10 22:30:03,26.5,-2.5,29.0,0.0,2.5,111
2017-08-10 22:35:03,26.4,-2.5,28.9,0.0,2.5,111
2017-08-10 22:40:03,26.4,-2.5,28.9,0.0,2.4,111
2017-08-10 22:45:03,26.4,-1.9,28.3,0.0,2.4,112
2017-08-10 22:50:03,26.4,-1.8,28.2,0.0,2.5,111
2017-08-10 22:55:03,26.4,-2.1,28.5,0.0,2.5,112
2017-08-10 23:00:03,26.3,-2.9,29.2,0.0,2.5,112
2017-08-10 23:05:03,26.0,-6.5,32.4,0.0,2.4,112
2017-08-10 23:10:03,25.3,-6.0,31.3,0.0,2.4,111
2017-08-10 23:15:03,24.7,-6.0,30.8,0.0,2.5,112
2017-08-10 23:20:03,24.5,-5.6,30.1,0.0,2.3,111
2017-08-10 23:25:03,24.5,-5.6,30.1,0.0,2.3,112
2017-08-10 23:30:03,24.7,-5.5,30.2,0.0,2.3,111
2017-08-10 23:35:03,24.7,-6.0,30.7,0.0,2.3,112
2017-08-10 23:40:03,24.6,-6.1,30.7,0.0,2.3,111
2017-08-10 23:45:03,24.7,-5.9,30.6,0.0,2.3,112
2017-08-10 23:50:03,24.6,-5.8,30.5,0.0,2.4,111
2017-08-10 23:55:03,24.5,-5.9,30.4,0.0,2.4,111
